SKW1896 KSFO-KLAX

Flight info

Callsign SKW1896
Flight time 0h 56m
Altitude 26000
Route WESLA5 SUSEY EBAYE BURGL IRNMN2
Aircraft CRJ7/M-SDFGIRWY/S

Departure

Time 2026-05-04 16:49
Airport San Francisco International Airport (KSFO)

Arrival

Time 2026-05-04 17:45
Airport Los Angeles International Airport (KLAX)
Time Latitude Longitude Altitude Speed Heading
2026-05-04 16:24 37.61832 -122.38200 27 ft 0 kts 140°
2026-05-04 16:36 37.61831 -122.38200 28 ft 0 kts 140°
2026-05-04 16:37 37.61838 -122.38206 28 ft 2 kts 140°
2026-05-04 16:37 37.61849 -122.38219 28 ft 2 kts 140°
2026-05-04 16:37 37.61867 -122.38240 28 ft 2 kts 119°
2026-05-04 16:38 37.61868 -122.38275 28 ft 2 kts 63°
2026-05-04 16:39 37.61853 -122.38294 28 ft 0 kts 27°
2026-05-04 16:43 37.61924 -122.38246 28 ft 10 kts 28°
2026-05-04 16:44 37.61826 -122.37858 25 ft 15 kts 112°
2026-05-04 16:45 37.61734 -122.37556 17 ft 21 kts 115°
2026-05-04 16:46 37.61499 -122.36987 8 ft 25 kts 120°
2026-05-04 16:46 37.61298 -122.36620 8 ft 25 kts 117°
2026-05-04 16:47 37.61129 -122.36213 5 ft 26 kts 119°
2026-05-04 16:47 37.61056 -122.35963 5 ft 12 kts 65°
2026-05-04 16:48 37.61259 -122.36037 5 ft 35 kts 299°
2026-05-04 16:48 37.61521 -122.36661 8 ft 121 kts 297°
2026-05-04 16:49 37.62556 -122.39101 890 ft 177 kts 299°
2026-05-04 16:49 37.63815 -122.41966 2171 ft 205 kts 300°
2026-05-04 16:50 37.65374 -122.45557 3257 ft 258 kts 299°
2026-05-04 16:50 37.66925 -122.49653 4959 ft 261 kts 277°
2026-05-04 16:51 37.65284 -122.53442 6501 ft 266 kts 204°
2026-05-04 16:51 37.63481 -122.53904 7316 ft 267 kts 181°
2026-05-04 16:51 37.59848 -122.52940 8957 ft 273 kts 161°
2026-05-04 16:52 37.56264 -122.51219 10515 ft 282 kts 159°
2026-05-04 16:52 37.54414 -122.50273 11099 ft 293 kts 158°
2026-05-04 16:53 37.50469 -122.48238 11963 ft 321 kts 158°
2026-05-04 16:53 37.45293 -122.42457 13262 ft 347 kts 132°
2026-05-04 16:54 37.43643 -122.40202 13764 ft 352 kts 132°
2026-05-04 16:55 37.36915 -122.31049 15860 ft 362 kts 131°
2026-05-04 16:55 37.33475 -122.26382 16863 ft 367 kts 131°
2026-05-04 16:56 37.29994 -122.21667 17833 ft 371 kts 132°
2026-05-04 16:56 37.24680 -122.14484 19252 ft 378 kts 132°
2026-05-04 16:57 37.22891 -122.12069 19696 ft 381 kts 132°
2026-05-04 16:57 37.19277 -122.07197 20575 ft 385 kts 132°
2026-05-04 16:58 37.13732 -121.99742 21728 ft 393 kts 132°
2026-05-04 16:58 37.11862 -121.97230 22108 ft 395 kts 132°
2026-05-04 16:59 37.08115 -121.92195 22910 ft 397 kts 132°
2026-05-04 17:00 37.00624 -121.82165 24785 ft 395 kts 133°
2026-05-04 17:00 36.95005 -121.74653 26199 ft 394 kts 134°
2026-05-04 17:01 36.91264 -121.69658 27113 ft 394 kts 135°
2026-05-04 17:01 36.87516 -121.64663 28034 ft 394 kts 137°
2026-05-04 17:02 36.83776 -121.59698 28947 ft 394 kts 138°
2026-05-04 17:02 36.79924 -121.54604 29140 ft 419 kts 140°
2026-05-04 17:03 36.77893 -121.51913 29157 ft 432 kts 140°
2026-05-04 17:03 36.75815 -121.49156 29119 ft 443 kts 140°
2026-05-04 17:03 36.71534 -121.43504 29038 ft 447 kts 141°
2026-05-04 17:04 36.62932 -121.32164 29082 ft 453 kts 141°
2026-05-04 17:05 36.54262 -121.20767 29009 ft 456 kts 142°
2026-05-04 17:06 36.47739 -121.12222 28912 ft 456 kts 142°
2026-05-04 17:07 36.41987 -121.04562 29014 ft 457 kts 139°
2026-05-04 17:07 36.37181 -120.97620 29075 ft 457 kts 140°
2026-05-04 17:08 36.30945 -120.88665 29087 ft 458 kts 140°
2026-05-04 17:09 36.26798 -120.82726 29094 ft 458 kts 140°
2026-05-04 17:09 36.22621 -120.76752 29099 ft 459 kts 140°
2026-05-04 17:10 36.12155 -120.61839 29078 ft 460 kts 141°
2026-05-04 17:11 36.07956 -120.55872 28988 ft 462 kts 141°
2026-05-04 17:11 36.03728 -120.49875 28774 ft 464 kts 141°
2026-05-04 17:12 36.01595 -120.46851 28721 ft 463 kts 141°
2026-05-04 17:12 35.97385 -120.40892 28853 ft 457 kts 141°
2026-05-04 17:13 35.91153 -120.32093 29047 ft 457 kts 143°
2026-05-04 17:14 35.84389 -120.24200 29131 ft 429 kts 161°
2026-05-04 17:14 35.81834 -120.22262 29155 ft 432 kts 160°
2026-05-04 17:15 35.74122 -120.16445 29089 ft 433 kts 160°
2026-05-04 17:16 35.63791 -120.08978 29072 ft 434 kts 159°
2026-05-04 17:17 35.53643 -120.01022 29062 ft 434 kts 160°
2026-05-04 17:18 35.43348 -119.93269 29024 ft 433 kts 160°
2026-05-04 17:19 35.33083 -119.85575 28978 ft 434 kts 160°
2026-05-04 17:19 35.27968 -119.81611 28854 ft 444 kts 155°
2026-05-04 17:20 35.23071 -119.77004 28647 ft 447 kts 154°
2026-05-04 17:20 35.15708 -119.70116 28728 ft 440 kts 155°
2026-05-04 17:21 35.05915 -119.61001 28818 ft 450 kts 155°
2026-05-04 17:22 35.03472 -119.58723 28484 ft 442 kts 155°
2026-05-04 17:22 35.01052 -119.56467 28092 ft 434 kts 155°
2026-05-04 17:23 34.93979 -119.49913 26741 ft 419 kts 155°
2026-05-04 17:23 34.91673 -119.47781 26272 ft 414 kts 155°
2026-05-04 17:23 34.87127 -119.43702 25326 ft 404 kts 156°
2026-05-04 17:24 34.84859 -119.41672 24843 ft 401 kts 156°
2026-05-04 17:24 34.78230 -119.35750 23729 ft 393 kts 155°
2026-05-04 17:25 34.76007 -119.33767 23356 ft 392 kts 155°
2026-05-04 17:25 34.71627 -119.29918 22587 ft 389 kts 155°
2026-05-04 17:26 34.67258 -119.26098 21807 ft 387 kts 155°
2026-05-04 17:26 34.60751 -119.20461 20576 ft 383 kts 154°
2026-05-04 17:27 34.56419 -119.16727 19717 ft 380 kts 153°
2026-05-04 17:27 34.52176 -119.12969 18772 ft 376 kts 153°
2026-05-04 17:28 34.47983 -119.09258 17800 ft 370 kts 152°
2026-05-04 17:29 34.41808 -119.03841 16128 ft 361 kts 152°
2026-05-04 17:29 34.35855 -118.98684 14254 ft 342 kts 151°
2026-05-04 17:30 34.30250 -118.93668 12857 ft 329 kts 149°
2026-05-04 17:31 34.26602 -118.90361 12191 ft 327 kts 148°
2026-05-04 17:31 34.21211 -118.85410 11996 ft 319 kts 147°
2026-05-04 17:32 34.17700 -118.82183 11984 ft 312 kts 147°
2026-05-04 17:33 34.12800 -118.77060 11809 ft 314 kts 142°
2026-05-04 17:33 34.11172 -118.75288 11549 ft 321 kts 142°
2026-05-04 17:34 34.06494 -118.70200 10391 ft 288 kts 142°
2026-05-04 17:34 34.04976 -118.68558 9977 ft 295 kts 142°
2026-05-04 17:35 34.02513 -118.61852 8839 ft 304 kts 97°
2026-05-04 17:35 34.02074 -118.56987 8150 ft 280 kts 97°
2026-05-04 17:35 34.01859 -118.54707 7837 ft 271 kts 97°
2026-05-04 17:36 34.01651 -118.52471 7514 ft 263 kts 97°
2026-05-04 17:36 34.01450 -118.50330 7189 ft 256 kts 96°
2026-05-04 17:36 34.01253 -118.48240 6983 ft 245 kts 96°
2026-05-04 17:36 34.01069 -118.46233 6719 ft 240 kts 94°
2026-05-04 17:37 34.01246 -118.44256 6334 ft 239 kts 76°
2026-05-04 17:37 34.01599 -118.42299 6027 ft 235 kts 77°
2026-05-04 17:37 34.01936 -118.40391 6003 ft 231 kts 77°
2026-05-04 17:37 34.02264 -118.38484 6004 ft 232 kts 78°
2026-05-04 17:38 34.02586 -118.36581 6012 ft 232 kts 77°
2026-05-04 17:38 34.02851 -118.34654 6009 ft 233 kts 83°
2026-05-04 17:38 34.03041 -118.32700 5984 ft 235 kts 83°
2026-05-04 17:38 34.03242 -118.30716 5813 ft 243 kts 83°
2026-05-04 17:39 34.03687 -118.26610 5480 ft 253 kts 82°
2026-05-04 17:39 34.03916 -118.24552 5249 ft 243 kts 82°
2026-05-04 17:39 34.04137 -118.22548 4942 ft 238 kts 82°
2026-05-04 17:40 34.04355 -118.20583 4637 ft 234 kts 84°
2026-05-04 17:40 34.04041 -118.18744 4311 ft 228 kts 125°
2026-05-04 17:40 34.02829 -118.17624 4012 ft 220 kts 165°
2026-05-04 17:40 34.01336 -118.17237 3745 ft 216 kts 171°
2026-05-04 17:41 33.99873 -118.17255 3408 ft 211 kts 204°
2026-05-04 17:41 33.98776 -118.18340 3140 ft 204 kts 231°
2026-05-04 17:41 33.97861 -118.19658 2861 ft 204 kts 233°
2026-05-04 17:41 33.97337 -118.21204 2638 ft 198 kts 261°
2026-05-04 17:42 33.97097 -118.22800 2520 ft 198 kts 261°
2026-05-04 17:42 33.96870 -118.24510 2543 ft 211 kts 262°
2026-05-04 17:42 33.96657 -118.26321 2438 ft 227 kts 263°
2026-05-04 17:42 33.96449 -118.28226 2252 ft 222 kts 264°
2026-05-04 17:43 33.96257 -118.30054 1889 ft 217 kts 264°
2026-05-04 17:43 33.96077 -118.31776 1554 ft 198 kts 264°
2026-05-04 17:43 33.95919 -118.33340 1258 ft 178 kts 264°
2026-05-04 17:43 33.95771 -118.34731 1052 ft 158 kts 265°
2026-05-04 17:44 33.95645 -118.35987 869 ft 141 kts 266°
2026-05-04 17:44 33.95528 -118.37081 673 ft 124 kts 267°
2026-05-04 17:44 33.95433 -118.38084 504 ft 123 kts 265°
2026-05-04 17:44 33.95326 -118.39113 339 ft 125 kts 264°
2026-05-04 17:45 33.95216 -118.40144 178 ft 122 kts 263°
2026-05-04 17:45 33.95115 -118.41107 119 ft 102 kts 263°
2026-05-04 17:45 33.95068 -118.41602 119 ft 35 kts 262°
2026-05-04 17:45 33.95042 -118.41842 119 ft 24 kts 264°
2026-05-04 17:46 33.95014 -118.42042 116 ft 24 kts 250°
2026-05-04 17:46 33.94931 -118.42212 116 ft 23 kts 229°
2026-05-04 17:46 33.94803 -118.42284 113 ft 21 kts 173°
2026-05-04 17:46 33.94687 -118.42268 112 ft 13 kts 173°
2026-05-04 17:47 33.94606 -118.42224 112 ft 13 kts 104°
2026-05-04 17:47 33.94615 -118.42104 112 ft 14 kts 83°
2026-05-04 17:47 33.94627 -118.41983 115 ft 14 kts 84°
2026-05-04 17:47 33.94636 -118.41855 115 ft 16 kts 84°
2026-05-04 17:48 33.94649 -118.41718 115 ft 17 kts 83°
2026-05-04 17:48 33.94664 -118.41573 116 ft 18 kts 83°
2026-05-04 17:48 33.94677 -118.41428 116 ft 11 kts 93°
2026-05-04 17:48 33.94619 -118.41374 116 ft 12 kts 174°
2026-05-04 17:49 33.94529 -118.41363 116 ft 13 kts 174°
2026-05-04 17:49 33.94433 -118.41348 116 ft 14 kts 173°
2026-05-04 17:49 33.94331 -118.41333 116 ft 15 kts 174°
2026-05-04 17:49 33.94223 -118.41318 116 ft 15 kts 173°
2026-05-04 17:50 33.94112 -118.41301 117 ft 16 kts 173°
2026-05-04 17:50 33.94001 -118.41285 119 ft 15 kts 172°
2026-05-04 17:50 33.93894 -118.41269 121 ft 12 kts 173°
2026-05-04 17:50 33.93838 -118.41212 122 ft 11 kts 88°
2026-05-04 17:51 33.93849 -118.41107 122 ft 13 kts 83°
2026-05-04 17:51 33.93861 -118.40990 122 ft 14 kts 83°
2026-05-04 17:51 33.93873 -118.40861 122 ft 16 kts 83°
2026-05-04 17:51 33.93888 -118.40721 122 ft 17 kts 83°
2026-05-04 17:52 33.93905 -118.40560 119 ft 20 kts 83°
2026-05-04 17:52 33.93922 -118.40377 116 ft 23 kts 83°
2026-05-04 17:52 33.93940 -118.40208 116 ft 20 kts 83°
2026-05-04 17:52 33.93958 -118.40030 113 ft 22 kts 84°
2026-05-04 17:53 33.93976 -118.39873 110 ft 13 kts 81°
2026-05-04 17:53 33.94015 -118.39830 109 ft 7 kts
2026-05-04 17:53 33.94073 -118.39831 109 ft 8 kts
2026-05-04 17:53 33.94136 -118.39839 109 ft 9 kts 352°
2026-05-04 17:54 33.94202 -118.39849 109 ft 9 kts 354°
2026-05-04 17:54 33.94237 -118.39833 109 ft 6 kts 83°
2026-05-04 17:54 33.94240 -118.39792 109 ft 2 kts 83°
2026-05-04 17:54 33.94240 -118.39790 109 ft 0 kts 83°